Погода в Мангейме

Германия     49°28′32″N   8°28′44″E
темп.,
°C
ветер,
м/с
пор.,
м/с
влажн.,
%
обл.,
%
осадки,
мм/ч
давл.,
гПа
погр.,
м
20 января, ср
ср2001:00+3ю486891 0.0 1012256
04:00+2ююв486961 0.0 1010247
07:00+2ююв476979 0.0 1009219
10:00+4ю41064100 0.0 1008406
13:00+6ю4961100 0.0 1007467
16:00+7ююв3864100 0.0 1005376
19:00+5ююв3971100 0.0 1004293
22:00+4ююв377589 0.0 1003220
21 января, чт
чт2101:00+4ююв396891 0.0 1002255
04:00+3ююв486690 0.0 1000249
07:00+5ю6205795 0.0 9991140
10:00+8ююз6196477 0.0 10001295
13:00+6зсз259188 2.2 1001281
16:00+6ю31287100 2.7 9991000
19:00+6ююв41289100 3.0 997544
22:00+9ююз71980100 0.5 9951470
22 января, пт
пт2201:00+9ю62080100 1.2 9941688
04:00+9ююз6197580 0.1 9931667
07:00+8ююз6148089 0.9 9941222
10:00+7юз2990100 4.1 994779
13:00+8ююз41578100 6.4 9931487
16:00+5сз2484100 0.1 993432
19:00+4ссв1283100 0.1 994290
22:00+4сз1284100 0.0 995148
23 января, сб
сб2301:00+4зюз1282100 0.1 996182
04:00+4юз2682100 0.0 997540
07:00+3ю2587100 0.0 998275
10:00+3ююз3693100 0.4 998449
13:00+4ююз2480100 0.5 997547
16:00+4юз2484100 0.3 996472
19:00+3юв249199 0.3 997163
22:00+3ю3695100 1.0 997441
24 января, вс
вс2401:00+3ююз4784100 4.3 998756
04:00+2юз4980100 0.0 998896
07:00+2з4873100 0.1 1000787
10:00+2юз367794 0.0 1001682
13:00+2ююз259396 0.8 1001334
16:00+3з156788 1.0 1001923
19:00+1зюз017761 1.0 100122
22:000ююз119895 2.0 100295